DW1814 Weather Reports


time (UTC)temp
C
wind
direction
speed
KPH
gust
KPH
rain 1hr
cm
rain 24hr
cm
rain mn
cm
humidity
%
barometer
mb
20260504081852 7 63 1.6 3.2 0.00 0.00 0.00 84 1002.4
20260504081349 8 72 1.6 4.8 0.00 0.00 0.00 84 1002.5
20260504080844 8 86 3.2 3.2 0.00 0.00 0.00 82 1002.4
20260504080342 8 74 3.2 3.2 0.00 0.00 0.00 82 1002.7
20260504070309 10 48 3.2 3.2 0.00 0.00 0.00 76 1003.5
20260504060230 12 100 3.2 3.2 0.00 0.00 0.00 69 1004.3
20260504050657 13 116 1.6 3.2 0.00 0.00 0.00 65 1004.3
20260504050154 13 103 1.6 3.2 0.00 0.00 0.00 64 1004.5
20260504045652 13 127 1.6 4.8 0.00 0.00 0.00 64 1004.4
20260504045151 13 147 0.0 4.8 0.00 0.00 0.00 64 1004.5
20260504044649 13 135 0.0 3.2 0.00 0.00 0.00 64 1004.4
20260504044146 13 123 3.2 3.2 0.00 0.00 0.00 64 1004.4
20260504043643 13 135 0.0 3.2 0.00 0.00 0.00 64 1004.4
20260504043140 13 128 0.0 3.2 0.00 0.00 0.00 64 1004.2
20260504042638 13 81 0.0 3.2 0.00 0.00 0.00 64 1004.3
20260504042134 13 119 1.6 3.2 0.00 0.00 0.00 64 1004.3
20260504041630 13 133 1.6 3.2 0.00 0.00 0.00 64 1004.2
20260504041126 13 80 0.0 4.8 0.00 0.00 0.00 64 1004.2
20260504040624 13 129 0.0 3.2 0.00 0.00 0.00 64 1004.4
20260504040121 13 68 0.0 3.2 0.00 0.00 0.00 64 1004.4
20260504035617 13 103 3.2 3.2 0.00 0.00 0.00 63 1004.4
20260504035114 13 140 0.0 3.2 0.00 0.00 0.00 63 1004.5
20260504034612 14 128 3.2 3.2 0.00 0.00 0.00 62 1004.3
20260504034108 14 111 1.6 3.2 0.00 0.00 0.00 62 1004.4
20260504033606 14 150 3.2 3.2 0.00 0.00 0.00 61 1004.4
20260504033103 15 134 3.2 4.8 0.00 0.00 0.00 61 1004.5
20260504032600 15 135 3.2 3.2 0.00 0.00 0.00 61 1004.5
20260504032057 15 131 3.2 3.2 0.00 0.00 0.00 60 1004.6
20260504031554 15 148 3.2 4.8 0.00 0.00 0.00 60 1004.6
20260504031050 15 112 3.2 3.2 0.00 0.00 0.00 60 1004.6
20260504030548 15 121 1.6 4.8 0.00 0.00 0.00 59 1004.7
20260504030043 15 148 0.0 3.2 0.00 0.00 0.00 59 1004.5
20260504025541 15 103 1.6 3.2 0.00 0.00 0.00 59 1004.7
20260504025038 15 141 1.6 3.2 0.00 0.00 0.00 59 1005.0
20260504024535 15 133 1.6 3.2 0.00 0.00 0.00 58 1004.8
20260504024031 15 137 3.2 3.2 0.00 0.00 0.00 58 1004.8
20260504023528 15 141 0.0 3.2 0.00 0.00 0.00 57 1004.8
20260504023024 15 136 3.2 3.2 0.00 0.00 0.00 57 1004.5
20260504022520 15 141 1.6 4.8 0.00 0.00 0.00 57 1004.7
20260504022017 15 141 3.2 3.2 0.00 0.00 0.00 57 1004.6
20260504021514 15 125 1.6 3.2 0.00 0.00 0.00 57 1004.6
20260504021011 15 140 3.2 3.2 0.00 0.00 0.00 56 1004.5
20260504020508 15 120 1.6 3.2 0.00 0.00 0.00 56 1004.6
20260504020004 15 125 1.6 3.2 0.00 0.00 0.00 56 1004.5
20260504015500 15 127 1.6 4.8 0.00 0.00 0.00 56 1004.4
20260504014956 15 132 3.2 3.2 0.00 0.00 0.00 58 1004.4
20260504014453 15 96 1.6 3.2 0.00 0.00 0.00 60 1004.5
20260504013950 15 106 1.6 3.2 0.00 0.00 0.00 57 1004.4
20260504013449 15 105 3.2 3.2 0.00 0.00 0.00 57 1004.4
20260504012944 15 141 1.6 3.2 0.00 0.00 0.00 56 1004.2
20260504012442 15 71 1.6 3.2 0.00 0.00 0.00 56 1004.2
20260504011940 16 83 1.6 3.2 0.00 0.00 0.00 53 1004.2
20260504011436 16 97 1.6 3.2 0.00 0.00 0.00 52 1004.0
20260504010932 16 97 3.2 3.2 0.00 0.00 0.00 51 1004.1
20260504010428 16 89 1.6 3.2 0.00 0.00 0.00 50 1003.9
20260504005924 17 98 1.6 3.2 0.00 0.00 0.00 49 1003.9
20260504005421 17 89 0.0 3.2 0.00 0.00 0.00 48 1004.0
20260504004919 17 136 1.6 3.2 0.00 0.00 0.00 47 1004.0
20260504004416 17 122 0.0 3.2 0.00 0.00 0.00 47 1004.0
20260504003913 18 141 0.0 3.2 0.00 0.00 0.00 47 1003.9
20260504003409 18 135 0.0 3.2 0.00 0.00 0.00 46 1004.0
20260504002906 18 298 0.0 3.2 0.00 0.00 0.00 46 1004.2
20260504002403 18 276 1.6 1.6 0.00 0.00 0.00 46 1004.1
20260504001900 18 122 3.2 3.2 0.00 0.00 0.00 44 1003.9
20260504001358 19 108 0.0 3.2 0.00 0.00 0.00 42 1003.9
20260504000854 19 68 0.0 3.2 0.00 0.00 0.00 43 1003.7
20260504000353 20 129 0.0 3.2 0.00 0.00 0.00 41 1004.1
20260503235849 20 218 3.2 8.0 0.00 0.00 0.00 41 1004.1
20260503235347 20 253 3.2 4.8 0.00 0.00 0.00 40 1004.2
20260503234844 20 320 1.6 3.2 0.00 0.00 0.00 40 1004.2
20260503234341 20 355 0.0 6.4 0.00 0.00 0.00 40 1004.0
20260503233839 20 265 6.4 6.4 0.00 0.00 0.00 39 1004.0
20260503233335 20 161 3.2 8.0 0.00 0.00 0.00 39 1004.2
20260503232831 20 149 3.2 11.3 0.00 0.00 0.00 39 1004.0
20260503232329 20 141 3.2 3.2 0.00 0.00 0.00 39 1004.2
20260503231827 20 124 0.0 3.2 0.00 0.00 0.00 39 1004.1
20260503231324 21 239 3.2 11.3 0.00 0.00 0.00 38 1004.4
20260503230819 21 289 3.2 4.8 0.00 0.00 0.00 38 1004.3
20260503230317 21 221 0.0 3.2 0.00 0.00 0.00 39 1004.2
20260503225814 21 161 8.0 8.0 0.00 0.00 0.00 38 1004.4
20260503225310 21 257 4.8 8.0 0.00 0.00 0.00 37 1004.5
20260503224806 21 167 4.8 6.4 0.00 0.00 0.00 37 1004.3
20260503224304 21 200 1.6 6.4 0.00 0.00 0.00 37 1004.2
20260503223801 21 204 3.2 4.8 0.00 0.00 0.00 39 1004.3
20260503223259 21 152 0.0 4.8 0.00 0.00 0.00 37 1004.4
20260503222755 21 148 3.2 6.4 0.00 0.00 0.00 39 1004.4
20260503222253 21 204 1.6 3.2 0.00 0.00 0.00 39 1004.3
20260503221751 21 145 3.2 6.4 0.00 0.00 0.00 38 1004.5
20260503221249 21 143 4.8 6.4 0.00 0.00 0.00 40 1004.4
20260503220745 20 98 1.6 3.2 0.00 0.00 0.00 41 1004.4
20260503220242 20 269 0.0 6.4 0.00 0.00 0.00 39 1004.6
20260503215739 20 96 0.0 4.8 0.00 0.00 0.00 40 1004.7
20260503215236 20 174 6.4 9.7 0.00 0.00 0.00 41 1004.7
20260503214734 20 124 0.0 8.0 0.00 0.00 0.00 40 1004.9
20260503214230 20 183 0.0 8.0 0.00 0.00 0.00 39 1005.0
20260503213729 20 192 3.2 8.0 0.00 0.00 0.00 40 1005.0
20260503213225 20 208 0.0 6.4 0.00 0.00 0.00 42 1005.0
20260503212722 20 202 3.2 6.4 0.00 0.00 0.00 39 1005.2
20260503212220 20 119 1.6 6.4 0.00 0.00 0.00 43 1005.2
20260503211717 20 202 6.4 8.0 0.00 0.00 0.00 38 1005.2
20260503211213 20 212 3.2 4.8 0.00 0.00 0.00 38 1005.2
20260503210709 20 231 3.2 6.4 0.00 0.00 0.00 40 1005.3
20260503210207 20 151 3.2 11.3 0.00 0.00 0.00 39 1005.4
20260503205701 19 186 3.2 6.4 0.00 0.00 0.00 39 1005.5
20260503205158 19 260 9.7 11.3 0.00 0.00 0.00 38 1005.7
20260503204654 20 258 4.8 11.3 0.00 0.00 0.00 37 1005.8
20260503204152 20 158 0.0 8.0 0.00 0.00 0.00 41 1005.8
20260503203649 20 148 3.2 8.0 0.00 0.00 0.00 40 1005.9
20260503203147 19 111 3.2 12.9 0.00 0.00 0.00 39 1006.0
20260503202644 19 171 4.8 11.3 0.00 0.00 0.00 39 1006.1
20260503202142 18 215 3.2 6.4 0.00 0.00 0.00 40 1006.2
20260503201640 18 252 6.4 9.7 0.00 0.00 0.00 39 1006.1
20260503201137 18 186 3.2 6.4 0.00 0.00 0.00 45 1006.6
20260503200627 17 187 3.2 6.4 0.00 0.00 0.00 44 1006.6
20260503200124 17 214 1.6 9.7 0.00 0.00 0.00 46 1006.7
20260503195621 18 266 3.2 8.0 0.00 0.00 0.00 44 1006.7
20260503195117 18 261 8.0 9.7 0.00 0.00 0.00 45 1006.9
20260503194615 17 197 0.0 6.4 0.00 0.00 0.00 46 1007.1
20260503194115 17 260 9.7 9.7 0.00 0.00 0.00 46 1007.2
20260503193613 17 239 1.6 8.0 0.00 0.00 0.00 48 1007.3
20260503193108 17 175 3.2 6.4 0.00 0.00 0.00 45 1007.2
20260503192604 18 269 8.0 8.0 0.00 0.00 0.00 47 1007.5
20260503192100 17 259 0.0 9.7 0.00 0.00 0.00 45 1007.2
20260503191557 18 191 4.8 11.3 0.00 0.00 0.00 46 1007.5
20260503191053 18 226 3.2 9.7 0.00 0.00 0.00 45 1007.3
20260503190550 17 169 0.0 4.8 0.00 0.00 0.00 50 1007.4
20260503190048 17 230 3.2 8.0 0.00 0.00 0.00 49 1007.5
20260503185539 17 228 8.0 9.7 0.00 0.00 0.00 45 1007.3
20260503185038 17 148 3.2 6.4 0.00 0.00 0.00 49 1007.6
20260503184534 17 151 4.8 9.7 0.00 0.00 0.00 47 1007.5
20260503184031 17 119 1.6 6.4 0.00 0.00 0.00 49 1007.5
20260503183528 17 243 3.2 12.9 0.00 0.00 0.00 46 1007.6
20260503183025 16 204 0.0 8.0 0.00 0.00 0.00 49 1007.6
20260503182523 16 180 3.2 9.7 0.00 0.00 0.00 46 1007.9
20260503182021 15 187 9.7 17.7 0.00 0.00 0.00 47 1008.2
20260503181518 16 225 3.2 11.3 0.00 0.00 0.00 49 1007.9
20260503181014 16 120 4.8 8.0 0.00 0.00 0.00 49 1008.5
20260503180511 16 119 3.2 9.7 0.00 0.00 0.00 50 1008.5
20260503180008 16 87 3.2 8.0 0.00 0.00 0.00 52 1008.3
20260503175506 16 179 3.2 9.7 0.00 0.00 0.00 48 1008.7
20260503175002 16 166 3.2 4.8 0.00 0.00 0.00 53 1008.7
20260503174500 15 200 6.4 8.0 0.00 0.00 0.00 52 1008.9
20260503173955 16 179 3.2 8.0 0.00 0.00 0.00 51 1008.9
20260503173451 16 205 6.4 6.4 0.00 0.00 0.00 54 1009.0
20260503172948 16 191 1.6 6.4 0.00 0.00 0.00 54 1009.3
20260503172446 15 146 8.0 8.0 0.00 0.00 0.00 52 1009.6
20260503171942 15 217 4.8 8.0 0.00 0.00 0.00 54 1009.6
20260503171438 15 157 6.4 8.0 0.00 0.00 0.00 58 1009.9
20260503170936 14 258 1.6 6.4 0.00 0.00 0.00 59 1010.2
20260503170432 14 216 4.8 11.3 0.00 0.00 0.00 56 1009.9
20260503150825 12 143 6.4 11.3 0.00 0.00 0.00 55 1011.4
20260503150321 12 260 4.8 8.0 0.00 0.00 0.00 56 1011.7
20260503140245 11 284 0.0 4.8 0.00 0.00 0.00 55 1012.0
20260503131215 10 159 0.0 4.8 0.00 0.00 0.00 55 1012.4
20260503130712 10 133 0.0 4.8 0.00 0.00 0.00 55 1012.8
20260503130209 10 97 1.6 4.8 0.00 0.00 0.00 59 1012.7
20260503120135 8 246 0.0 4.8 0.00 0.00 0.00 59 1012.9
20260503110603 8 161 0.0 6.4 0.00 0.00 0.00 56 1012.0